Peachtree City, GA

4:50 AM EST on December 14, 2019 (GMT -0500)
Peachtree City-Falcon

Weather History for KFFC - June, 2019

Change the Weather History Date:

Monday, June 3, 2019

  Actual Average Record
Temperature  
Mean Temperature 78 °F 74 °F  
Max Temperature 92 °F 85 °F 97 °F (2011)
Min Temperature 64 °F 62 °F 54 °F (1997)
Degree Days  
Heating Degree Days 0 0  
Month to date heating degree days 0 0  
Since 1 June heating degree days 0 0  
Since 1 July heating degree days 2325 2950  
Cooling Degree Days 13 9  
Month to date cooling degree days 35 25  
Year to date cooling degree days 442 215  
Since 1 June cooling degree days 35 25  
Growing Degree Days 28 (Base 50)    
Moisture  
Dew Point 61 °F    
Average Humidity 62    
Maximum Humidity 93    
Minimum Humidity 30    
Precipitation  
Precipitation 0.00 in 0.13 in 3.42 in (1999)
Month to date precipitation 0.00 0.38  
Year to date precipitation 20.76 21.90  
Snow  
Snow 0.00 in - - ()
Month to date snowfall 0.0  
Since 1 June snowfall 0.0  
Since 1 July snowfall T  
Snow Depth 0.00 in    
Sea Level Pressure  
Sea Level Pressure 29.97 in    
Wind  
Wind Speed 4 mph (NNW)    
Max Wind Speed 14 mph    
Max Gust Speed 19 mph    
Visibility 10 miles    
Events      
T = Trace of Precipitation, MM = Missing Value Source: NWS Daily Summary

Daily Weather History Graph

Daily Weather History Graph

Search for Another Location

Airport or City:

Astronomy

Jun. 03, 2019 Rise Set
Actual Time 6:29 AM EDT 8:43 PM EDT
Civil Twilight 6:00 AM EDT 9:12 PM EDT
Nautical Twilight 5:25 AM EDT 9:47 PM EDT
Astronomical Twilight 4:48 AM EDT 10:25 PM EDT
Moon 6:46 AM EDT (6/3) 9:09 PM EDT (6/3)
Length of Visible Light 15h 11m
Length of Day
14h 14m
New Moon, 0% of the Moon is Illuminated
Jun 3
New Moon
Jun 10
First Quarter
Jun 17
Full
Jun 25
Last Quarter
Jul 2
New

Hourly Weather History & Observations

Time (EDT) Temp. Heat Index Dew Point Humidity Pressure Visibility Wind Dir Wind Speed Gust Speed Precip Events Conditions
12:53 AM 69.1 °F - 64.0 °F 84% 29.91 in 10.0 mi Calm Calm - N/A   Clear
1:53 AM 66.9 °F - 64.0 °F 90% 29.91 in 10.0 mi Calm Calm - N/A   Clear
2:53 AM 66.9 °F - 63.0 °F 87% 29.90 in 10.0 mi Calm Calm - N/A   Clear
3:53 AM 66.0 °F - 63.0 °F 90% 29.90 in 10.0 mi Calm Calm - N/A   Clear
4:53 AM 64.9 °F - 62.1 °F 90% 29.91 in 10.0 mi Calm Calm - N/A   Clear
5:53 AM 64.9 °F - 62.1 °F 90% 29.94 in 9.0 mi Calm Calm - N/A   Clear
6:53 AM 64.0 °F - 62.1 °F 93% 29.95 in 7.0 mi Calm Calm - N/A   Clear
7:53 AM 70.0 °F - 66.0 °F 87% 29.97 in 9.0 mi Calm Calm - N/A   Clear
8:53 AM 77.0 °F - 66.0 °F 69% 29.99 in 10.0 mi Variable 3.5 mph - N/A   Clear
9:53 AM 82.9 °F 84.0 °F 63.0 °F 51% 30.00 in 10.0 mi NNW 8.1 mph - N/A   Clear
10:53 AM 86.0 °F 86.3 °F 62.1 °F 44% 30.00 in 10.0 mi North 5.8 mph - N/A   Clear
11:53 AM 87.1 °F 87.0 °F 61.0 °F 41% 30.01 in 10.0 mi WNW 9.2 mph - N/A   Clear
12:53 PM 90.0 °F 89.7 °F 60.1 °F 37% 30.00 in 10.0 mi North 13.8 mph - N/A   Clear
1:53 PM 89.1 °F 88.8 °F 60.1 °F 38% 29.99 in 10.0 mi Variable 5.8 mph - N/A   Clear
2:53 PM 91.0 °F 90.2 °F 59.0 °F 34% 29.98 in 10.0 mi WNW 10.4 mph - N/A   Clear
3:53 PM 91.9 °F 91.5 °F 60.1 °F 34% 29.97 in 9.0 mi North 8.1 mph - N/A   Clear
4:53 PM 91.0 °F 88.9 °F 55.0 °F 29% 29.97 in 10.0 mi NNW 12.7 mph - N/A   Clear
5:53 PM 89.1 °F 87.7 °F 57.0 °F 34% 29.97 in 10.0 mi WNW 8.1 mph - N/A   Clear
6:53 PM 89.1 °F 87.7 °F 57.0 °F 34% 29.96 in 10.0 mi WNW 8.1 mph - N/A   Clear
7:53 PM 87.1 °F 85.7 °F 55.9 °F 35% 29.97 in 10.0 mi North 5.8 mph - N/A   Clear
8:53 PM 77.0 °F - 61.0 °F 58% 29.99 in 10.0 mi Calm Calm - N/A   Clear
9:53 PM 73.0 °F - 63.0 °F 71% 30.01 in 10.0 mi Calm Calm - N/A   Clear
10:53 PM 70.0 °F - 62.1 °F 76% 30.03 in 10.0 mi Calm Calm - N/A   Clear
11:53 PM 69.1 °F - 62.1 °F 78% 30.03 in 10.0 mi Calm Calm - N/A   Clear